Location: Devargunta
(16.7631°N, 80.9077°E)
Time: 18:28:38
(UTC+00:00)

Helios 1A Rocket - Pass Details

Date: 19 January 2021
Orbit: 562 x 586 km, 98.3° (Epoch: 04 March)

Event Time Altitude Azimuth Distance (km) Brightness Sun altitude
Rises 13:35:02 0° 160° (SSE) 2,780 6.4 -16.6°
Reaches altitude 10° 13:37:11 10° 157° (SSE) 1,886 5.5 -17.1°
Maximum altitude 13:41:13 60° 77° (ENE) 667 2.9 -18.0°
Drops below altitude 10° 13:45:16 10° 357° (N) 1,900 5.4 -19.0°
Sets 13:47:27 0° 354° (N) 2,803 6.3 -19.5°
